Theta_e
317 320 322 321 320 319 319 319 319 320 320 320 321 322 322 321 321 321 319 316 316 318 319 320 320 320 320 318 314 312 312 312 313 313 312 311 310 309 309 308 308 307 307 308 307 308 308 309 310 311 312 314 316 316 316 317 317 317 317 317 317 317 316 316 316 316 316 316 316 317 318 318 318 318 317 317 317 317 316 316 315 313 313 312 311 311
318 321 321 321 319 319 320 320 320 320 320 320 321 321 322 322 322 321 319 316 316 319 320 320 321 320 320 321 316 311 312 311 312 313 311 311 310 309 309 308 308 307 307 307 307 307 308 309 310 311 313 313 315 316 316 317 317 316 316 316 315 315 315 314 315 315 314 315 315 316 317 316 316 316 315 313 312 311 310 309 308 307 306 306 305 305
321 320 319 319 319 320 320 320 320 320 320 321 321 321 322 322 322 321 318 316 316 318 320 320 320 320 319 321 317 312 311 312 312 313 312 311 310 309 309 308 308 307 307 306 307 308 308 309 310 311 313 313 314 315 315 316 316 315 316 315 315 314 314 314 314 314 313 314 314 314 314 313 312 310 309 308 307 306 305 305 304 303 303 302 302 301
322 320 319 319 319 320 320 319 319 320 320 322 321 322 322 322 323 323 318 316 316 316 319 319 319 319 318 320 319 313 312 313 312 312 312 311 310 309 309 308 307 307 306 306 307 308 308 309 310 312 313 313 314 315 314 315 315 315 315 315 315 315 315 314 313 312 311 311 311 310 310 309 307 306 306 305 304 304 303 302 301 301 300 300 299 299
321 320 319 319 319 320 320 320 321 320 320 322 323 322 323 322 323 323 321 318 317 317 318 318 320 321 319 320 319 315 312 311 311 311 311 310 309 309 308 308 307 306 306 306 307 307 308 309 311 313 314 314 315 314 314 315 315 314 314 314 315 315 314 313 311 309 308 308 307 307 307 306 306 305 304 304 303 301 301 300 300 299 298 298 298 298
320 319 320 321 321 321 322 321 322 322 321 322 324 323 321 322 322 324 325 322 323 323 319 318 324 327 323 322 320 315 312 311 309 308 309 309 309 308 308 307 306 306 305 305 306 307 308 309 311 314 314 314 315 315 314 314 313 313 313 313 313 313 312 310 309 307 306 306 306 306 305 305 305 304 303 302 301 300 300 300 299 298 298 298 298 298
319 318 320 323 323 323 323 322 323 323 321 322 326 326 322 321 323 324 324 324 326 326 321 319 326 327 323 322 321 315 312 312 310 308 308 308 308 307 307 306 306 306 305 305 306 306 307 309 311 313 314 314 315 314 314 313 312 312 312 311 310 309 308 307 307 306 305 305 304 304 304 304 304 303 302 301 300 300 299 299 298 298 298 297 297 297
319 319 321 323 323 325 323 321 323 322 322 324 326 327 324 321 323 324 323 325 326 324 322 320 323 324 322 323 321 315 312 313 310 308 308 307 307 307 306 306 306 305 304 304 305 306 307 309 311 313 313 314 314 313 312 311 310 310 308 308 307 306 305 305 305 304 304 303 303 303 303 302 302 302 301 300 299 299 298 298 298 297 297 297 296 296
320 321 324 324 323 324 322 322 325 323 322 324 324 323 324 323 323 323 324 325 325 324 324 322 321 324 324 322 319 315 315 316 312 310 308 308 307 306 306 306 305 305 304 304 305 306 307 309 311 312 312 313 313 311 310 309 307 306 306 305 304 304 304 303 303 303 302 302 302 302 301 301 301 300 300 299 299 298 298 298 297 297 296 296 296 296
321 318 319 322 322 322 321 323 326 326 322 321 322 322 323 322 322 322 323 324 323 323 324 323 322 324 326 323 319 317 318 318 315 312 309 308 307 306 306 306 305 304 304 304 305 306 307 308 310 310 311 311 310 308 307 306 305 304 304 304 303 303 303 302 302 302 301 301 301 300 300 300 300 300 299 299 298 298 297 297 296 296 296 295 295 295
317 314 315 319 320 318 318 318 318 322 321 318 321 323 321 321 320 320 321 321 322 323 323 323 322 322 325 326 321 319 319 318 317 314 310 307 307 306 306 305 304 304 303 304 305 306 307 308 308 309 309 308 307 306 305 304 304 303 303 303 303 302 302 301 301 301 301 300 300 300 299 299 299 299 299 298 298 297 296 296 296 295 295 295 295 295
316 317 317 317 316 315 318 318 314 316 318 319 322 323 322 321 320 320 320 320 322 324 323 322 322 322 324 325 320 319 319 317 318 315 310 308 307 306 306 305 304 304 303 304 305 306 307 307 307 307 307 306 305 304 304 303 303 303 302 302 302 302 301 301 300 300 300 299 299 299 299 299 299 298 298 297 297 296 296 296 295 295 295 295 295 294
319 319 319 318 316 315 320 321 316 315 317 320 322 323 324 324 322 323 323 321 322 323 319 319 321 323 322 322 319 319 318 317 317 314 310 308 307 306 306 305 304 303 303 304 305 306 306 306 306 305 305 304 304 303 303 303 302 302 302 301 301 301 301 300 300 299 299 299 299 298 298 298 298 298 297 297 296 296 295 295 295 295 295 295 295 294
323 321 320 319 317 316 319 321 319 319 318 320 321 323 326 326 325 327 325 324 325 323 317 315 320 324 324 322 320 319 317 314 313 312 310 308 307 306 306 305 304 303 303 304 305 305 305 305 305 304 303 303 303 303 302 302 302 301 301 301 300 300 300 299 299 298 298 298 298 298 298 298 298 297 297 296 296 295 295 295 295 295 295 294 294 294
325 325 322 320 318 317 318 319 321 320 317 318 320 321 324 326 328 329 327 327 327 322 317 316 321 326 325 322 318 314 311 310 311 312 310 309 307 307 306 304 304 303 303 304 304 305 305 304 304 303 303 303 302 302 302 301 301 301 301 300 300 300 299 299 298 298 298 298 298 298 298 297 297 297 296 296 295 295 295 295 295 295 294 294 294 293
324 327 323 318 317 317 317 318 319 320 318 318 319 321 323 324 325 326 324 322 321 321 319 319 323 324 320 318 313 309 309 309 310 311 310 308 307 306 305 304 303 303 303 303 304 304 304 303 303 303 302 302 302 302 301 301 301 301 300 300 299 299 299 298 298 298 298 298 298 298 298 297 297 296 296 296 296 295 295 295 295 294 294 294 293 293
325 326 322 317 316 315 315 318 318 320 321 320 320 321 322 322 322 324 323 319 318 322 322 320 321 320 317 317 312 310 312 310 309 309 308 307 307 306 305 304 303 303 303 303 304 303 303 303 302 302 302 302 302 302 301 301 301 300 300 299 299 299 298 298 298 298 298 298 298 297 297 297 296 296 296 296 296 295 295 294 294 294 294 293 293 292
326 325 320 317 318 314 312 316 318 317 318 321 322 321 320 322 321 321 323 322 322 324 323 321 322 320 320 320 314 311 313 312 310 310 308 307 307 305 304 304 303 303 303 303 303 303 303 303 302 302 302 302 302 301 301 301 300 300 299 299 299 298 298 298 297 297 297 297 297 297 297 296 296 295 296 295 295 295 294 294 294 294 293 293 292 292
325 325 320 316 318 315 312 316 319 316 314 317 319 318 320 324 323 321 322 324 325 324 324 323 323 321 321 321 317 314 315 313 310 310 309 307 306 305 304 304 303 303 302 302 303 303 302 303 303 302 302 302 302 301 301 301 300 299 299 299 298 298 298 297 297 297 297 297 297 296 296 295 295 295 295 295 294 294 294 294 293 293 293 292 292 291
323 326 322 315 314 315 313 316 320 319 315 314 314 317 320 322 322 323 321 322 325 324 324 325 325 324 321 320 320 318 315 312 309 309 309 307 306 306 305 304 303 303 303 303 303 302 302 303 303 302 302 302 302 301 301 300 300 299 299 298 298 297 297 297 297 297 297 296 296 296 295 295 295 295 295 294 294 294 293 293 293 293 292 292 292 291
322 324 324 316 313 315 316 317 318 319 317 315 316 319 320 318 319 322 321 321 323 323 324 324 324 325 321 317 319 318 314 312 310 309 309 307 307 306 305 304 304 303 303 303 303 303 302 302 302 302 302 302 301 301 301 300 300 299 299 298 298 297 297 296 296 296 296 296 295 295 295 295 295 294 294 294 293 293 293 293 293 292 292 292 291 291
321 322 322 318 314 315 317 316 316 318 318 317 316 317 318 318 319 321 322 321 320 321 323 323 324 326 320 315 317 319 316 313 310 308 308 307 307 307 306 305 305 304 303 303 303 303 303 302 302 302 302 301 301 301 300 300 299 299 299 298 297 297 296 296 296 296 296 295 295 294 294 294 294 293 293 293 293 292 292 292 292 292 291 291 291 291
322 322 321 320 317 316 316 315 314 316 317 317 317 317 318 318 318 321 323 323 322 321 322 322 323 323 319 315 315 316 315 312 310 308 307 307 308 307 306 306 305 304 304 303 303 303 302 302 302 302 301 301 301 301 300 300 299 299 299 298 297 296 296 296 296 295 295 295 294 294 294 293 293 293 292 292 292 292 292 292 291 291 291 290 290 290
320 322 322 321 320 316 314 314 313 314 315 317 318 318 319 318 318 320 321 321 322 322 321 322 322 321 317 315 312 309 309 310 310 309 308 307 308 307 307 306 305 304 304 303 302 302 302 302 302 302 302 301 301 301 300 299 299 299 298 298 297 296 296 295 295 295 294 294 294 293 293 293 292 292 292 292 291 292 291 291 291 291 290 290 290 290
319 320 321 322 323 320 317 316 315 315 314 316 317 317 317 318 318 319 318 318 320 321 322 321 321 321 318 314 310 308 308 310 310 310 310 308 307 307 307 307 306 305 304 303 302 302 301 301 302 302 302 302 301 301 300 300 299 299 298 298 297 296 296 295 295 294 294 293 293 293 292 292 291 291 291 291 291 291 291 291 291 290 290 290 290 289
320 321 320 321 324 324 322 321 319 317 314 314 316 316 316 318 319 319 318 319 319 321 322 321 321 322 318 313 311 311 311 310 309 310 310 309 308 307 307 307 306 305 304 304 303 302 302 301 302 302 302 302 301 301 300 300 300 299 298 298 297 297 296 295 295 294 293 293 293 292 292 291 291 291 291 291 291 291 291 291 290 290 290 289 289 289
318 319 319 321 323 323 324 324 321 318 316 315 316 316 316 317 318 318 318 319 319 320 321 320 320 322 320 316 314 314 313 312 310 308 309 310 309 308 307 307 307 306 305 304 303 302 302 301 302 302 302 302 302 301 301 300 300 299 299 298 297 296 295 295 295 294 293 293 292 292 291 291 291 291 291 291 291 291 291 290 290 289 289 289 289 289
318 319 319 320 321 321 324 324 320 318 318 317 316 316 316 316 317 318 318 319 319 320 320 320 321 322 320 317 316 315 314 313 311 307 307 309 310 308 308 307 307 306 305 304 303 302 302 302 302 302 302 302 302 301 300 300 300 299 299 299 298 297 296 296 295 294 293 293 292 292 291 290 290 290 290 290 291 291 291 290 289 289 289 288 288 288
319 319 318 319 320 319 321 322 319 319 318 318 317 316 315 315 316 317 317 318 319 320 320 321 323 322 319 317 316 315 313 312 311 309 307 309 309 309 308 307 307 306 306 305 304 303 303 303 302 302 302 302 302 301 300 300 300 299 299 299 298 297 296 296 295 294 294 293 292 292 291 290 290 290 290 290 291 291 290 290 289 289 288 288 288 288
316 318 318 319 319 318 319 319 319 318 318 317 318 317 316 315 315 316 316 316 317 318 318 320 322 320 319 318 315 313 312 310 310 309 308 307 308 308 308 308 307 307 306 305 305 305 304 303 303 302 302 302 302 302 301 300 300 299 299 299 298 297 297 296 296 295 294 294 293 292 290 290 290 290 290 290 291 291 290 289 289 289 288 288 288 288
314 317 318 318 318 318 317 318 318 317 317 317 318 318 317 316 314 315 315 315 316 317 316 317 319 318 316 315 313 312 311 310 309 308 307 307 307 307 307 308 307 307 306 306 306 305 305 304 303 302 301 301 302 302 301 301 300 299 299 299 299 298 297 297 296 296 295 294 293 292 290 289 289 290 290 290 291 290 290 289 289 288 288 288 288 288
312 315 316 317 318 318 317 318 317 315 315 316 316 316 316 316 316 315 314 315 315 316 316 316 316 317 316 315 312 309 309 309 308 307 307 307 307 308 307 307 307 307 307 307 306 306 305 304 303 302 302 302 302 301 301 300 300 300 300 300 299 298 298 297 297 296 295 294 293 292 291 289 289 290 290 290 290 290 290 289 289 288 288 288 288 288
311 313 315 315 317 318 317 317 316 314 315 317 316 316 315 314 315 315 314 315 314 314 316 316 315 316 317 316 314 313 312 310 308 308 309 308 308 308 308 308 308 308 308 308 307 306 306 306 305 305 304 303 302 301 300 300 301 301 301 301 300 299 298 297 297 296 295 294 293 293 291 290 289 290 290 290 290 290 290 289 289 288 288 288 288 288
309 312 314 314 317 317 315 314 315 316 318 318 315 316 316 314 315 316 315 314 314 313 314 314 315 317 318 315 315 316 315 312 310 311 312 311 310 309 308 309 309 309 309 308 308 307 307 306 306 305 304 302 301 300 300 300 300 301 300 300 299 298 298 298 297 296 295 295 294 293 292 290 289 289 290 290 290 290 290 289 289 288 288 288 288 288
310 311 312 313 315 315 312 313 316 318 318 315 310 310 312 313 314 315 315 314 313 313 313 313 314 316 315 312 312 312 312 312 312 312 312 311 310 310 309 310 310 310 310 310 309 307 306 306 305 304 303 302 301 300 300 300 300 300 299 298 297 298 299 298 297 297 296 295 294 293 291 290 289 289 290 290 290 290 290 289 289 288 288 288 288 288
311 311 312 313 313 312 311 315 319 318 314 310 307 306 309 313 315 314 315 315 313 312 313 312 312 312 311 309 309 310 310 311 311 310 310 310 310 310 310 310 310 310 310 310 308 307 306 306 305 305 304 303 302 301 300 300 299 299 298 297 297 298 298 298 297 297 297 295 294 293 292 290 289 289 289 290 290 290 290 289 289 288 288 288 288 288
311 312 312 313 313 312 312 314 316 316 314 311 309 308 309 313 315 315 316 316 314 313 312 312 312 312 310 308 307 308 308 308 308 308 309 309 310 310 310 309 309 309 308 307 307 306 306 305 305 304 303 303 302 302 301 301 300 299 297 296 297 297 297 297 297 297 297 296 295 294 293 291 289 289 289 290 290 290 290 289 289 288 288 288 288 288
308 310 311 313 313 312 313 313 314 316 316 314 311 308 306 307 311 314 316 316 315 313 311 312 314 313 311 306 303 304 306 308 309 308 308 309 309 309 309 308 307 307 306 306 306 305 305 304 303 303 302 302 302 301 301 300 300 299 297 297 297 297 296 296 297 298 297 296 295 294 293 292 290 289 289 289 290 290 290 290 289 288 288 288 288 288
305 307 309 311 312 311 312 314 314 315 315 313 310 305 302 304 308 312 314 315 313 308 308 312 313 311 308 303 301 304 308 310 311 308 307 307 308 307 307 306 305 306 305 305 305 304 303 302 302 302 302 302 301 301 300 300 299 298 298 297 297 296 296 297 298 298 297 296 296 294 293 292 291 289 288 289 289 290 290 290 289 288 288 288 288 288
305 307 308 310 312 312 312 313 314 313 313 311 306 301 301 304 307 312 314 314 308 303 304 309 309 308 307 303 301 305 309 310 309 306 304 305 306 306 306 305 305 305 305 304 303 302 301 300 299 299 300 300 301 301 301 300 298 298 297 297 296 296 297 298 297 297 297 296 295 294 293 293 291 289 288 288 289 289 290 290 289 288 288 288 288 288
306 307 308 309 311 311 312 313 313 313 311 308 303 300 300 304 308 312 313 309 304 301 303 306 306 306 306 303 302 304 307 306 304 302 301 302 302 302 303 303 303 303 303 302 301 300 299 298 297 297 298 298 300 301 301 300 299 298 298 297 297 298 298 297 297 296 296 296 295 295 294 293 292 290 289 288 288 289 289 289 289 288 288 288 288 288
307 307 308 309 310 311 312 312 312 313 310 304 300 298 300 306 311 310 305 301 301 301 303 304 305 305 305 304 304 304 304 303 302 300 300 300 299 299 299 300 301 301 301 300 299 298 297 297 296 296 296 297 298 299 300 299 299 299 298 298 297 297 297 296 296 296 296 296 296 296 295 294 293 291 290 288 288 288 288 288 289 289 288 288 288 287
308 308 308 309 309 310 311 311 313 313 307 300 300 300 302 308 310 304 298 298 300 302 303 303 304 304 305 304 304 303 302 302 301 301 300 299 298 297 297 297 298 299 298 298 297 297 296 296 296 296 296 296 297 297 298 298 298 297 297 297 297 296 296 295 295 295 296 296 296 296 295 294 293 292 291 289 288 288 288 288 289 289 288 288 288 287
308 309 310 310 310 310 311 311 311 308 303 299 302 304 304 305 304 301 299 299 299 300 302 302 302 302 303 303 303 302 302 301 300 300 299 297 296 295 295 296 296 296 296 296 296 295 295 296 295 295 296 296 296 297 297 297 296 296 296 295 294 294 293 293 294 294 294 294 294 294 294 293 292 291 290 289 288 287 287 287 288 289 289 288 288 288
309 307 308 310 310 309 310 310 306 301 299 299 301 302 302 301 300 300 301 300 299 300 301 300 300 300 300 300 301 301 300 300 299 298 297 295 295 295 295 295 295 295 294 294 295 295 295 295 295 295 296 296 296 296 295 295 294 294 293 293 292 292 292 292 292 292 293 293 293 293 292 292 291 290 289 289 288 287 287 287 288 289 289 288 288 288
303 301 303 307 309 308 305 303 301 299 298 299 300 301 301 300 299 300 300 300 300 300 299 299 299 299 298 298 298 298 299 298 298 297 296 295 294 294 294 294 294 294 294 294 294 294 294 294 295 295 295 295 295 294 294 293 292 292 292 292 291 291 291 291 291 291 292 292 292 292 292 291 291 290 290 289 289 288 288 287 288 289 289 289 288 288
299 299 301 305 308 309 305 300 298 298 298 298 299 300 299 298 299 299 300 300 299 298 298 298 298 297 297 297 297 296 297 297 297 296 295 294 294 294 294 294 294 293 294 293 293 294 294 294 294 294 294 293 293 293 292 292 292 292 292 292 291 291 291 291 291 291 291 291 291 291 291 291 291 291 290 290 290 289 289 289 289 289 289 289 288 288
301 300 302 304 305 304 301 296 295 296 297 297 299 299 298 298 299 299 299 299 297 297 297 297 297 296 296 296 296 295 295 295 295 295 294 294 294 294 294 294 293 293 293 293 293 293 293 293 293 293 293 292 292 292 292 292 292 292 291 291 291 291 291 291 291 291 291 291 291 291 291 291 291 291 291 290 290 290 290 290 290 289 289 289 289 288
301 301 302 304 302 299 296 294 293 296 297 296 297 299 299 299 299 298 298 297 297 297 297 296 296 296 295 295 295 295 295 295 294 294 294 294 294 294 294 294 293 293 293 293 293 293 293 293 293 292 292 292 292 292 292 292 292 292 291 291 291 291 291 291 291 291 291 291 291 291 291 291 291 291 291 290 290 290 290 290 290 289 289 289 288 287
300 301 302 302 302 302 299 296 295 299 300 297 297 299 299 298 298 298 298 298 297 297 297 295 295 295 295 295 295 294 294 294 294 294 294 294 294 294 294 294 293 293 293 293 293 293 293 293 292 292 292 292 292 292 292 292 292 291 291 291 291 291 291 291 291 291 291 291 291 291 291 291 291 291 291 290 290 290 290 290 289 289 288 288 287 286
299 301 301 301 302 303 300 297 297 300 300 299 299 300 299 299 299 298 298 298 298 297 296 296 295 295 295 295 295 294 294 294 294 294 294 294 294 294 293 293 293 293 293 293 293 293 293 293 292 292 292 292 292 292 292 292 292 291 291 291 291 291 291 291 291 291 291 291 291 291 291 291 290 290 290 290 290 290 289 289 289 288 287 287 286 285
Wind_Speed
8 4 3 5 6 7 8 10 10 9 8 5 2 3 5 4 5 4 1 4 2 1 5 6 6 9 7 5 11 18 18 15 15 15 16 16 15 15 13 13 12 13 15 14 10 10 11 10 9 10 12 13 14 14 13 13 14 15 15 16 17 16 15 13 13 13 13 12 12 13 13 14 14 12 10 10 8 8 8 8 7 6 7 6 6 6
5 5 7 8 8 8 8 9 10 10 9 6 2 4 5 3 6 5 1 4 3 1 4 6 7 9 9 7 10 18 14 14 19 18 18 19 17 16 15 15 14 15 16 13 11 12 12 12 12 13 14 15 16 15 15 14 14 14 14 14 13 14 15 14 14 13 13 13 12 12 12 12 13 11 10 10 10 10 10 10 11 11 12 11 12 12
4 6 8 11 9 9 6 3 4 7 6 5 3 3 4 4 5 3 2 3 2 1 3 5 7 8 9 8 7 18 17 17 23 21 20 21 19 18 17 17 17 17 15 13 13 14 14 15 15 16 15 16 18 18 17 16 16 15 15 14 13 14 14 14 13 12 13 14 13 12 13 13 13 14 13 13 15 14 14 14 14 15 14 14 14 14
5 6 10 14 11 8 5 2 2 3 2 3 3 3 4 4 4 3 1 2 2 2 4 5 7 8 8 9 8 16 17 12 15 16 15 17 19 18 17 17 18 17 15 15 15 15 16 17 18 18 18 18 21 21 19 19 18 17 17 16 15 14 13 13 13 13 14 16 15 15 16 15 16 17 16 16 16 15 15 15 15 15 14 14 14 14
8 4 7 12 10 7 5 4 4 3 3 5 6 5 5 4 6 6 3 3 3 4 5 3 7 7 8 12 9 7 8 6 9 11 10 13 14 14 15 15 15 15 15 16 17 18 19 20 20 21 20 21 22 22 21 20 19 19 18 17 16 14 14 14 14 15 16 17 17 18 18 17 17 17 16 15 16 15 14 14 14 14 13 12 12 12
10 6 6 7 7 7 6 5 6 6 4 4 6 8 9 8 6 5 3 2 2 3 3 2 3 5 4 9 7 5 4 4 8 10 11 13 13 14 16 15 14 14 15 17 18 19 21 22 23 23 23 23 23 23 22 21 20 20 19 18 17 17 17 17 16 16 17 17 17 17 17 16 15 16 16 14 14 14 12 12 12 12 11 11 11 11
3 4 6 5 6 6 6 5 5 7 4 4 4 4 7 7 4 3 5 3 1 3 1 3 2 5 5 4 4 6 6 6 8 9 13 16 16 17 18 18 17 17 17 18 19 21 23 24 25 26 25 25 25 24 23 22 21 20 20 19 19 19 20 20 19 18 17 17 17 15 14 14 12 13 14 14 12 12 11 11 10 10 9 9 9 9
3 5 3 4 6 5 6 5 5 8 4 3 3 3 2 2 1 1 2 3 3 3 2 4 3 5 8 5 6 8 7 7 8 9 11 18 21 20 20 21 22 21 21 22 23 23 24 26 27 28 28 27 26 25 24 22 22 21 21 20 20 20 20 19 19 18 17 15 15 14 12 13 12 10 12 12 11 10 10 9 8 8 8 8 8 9
3 7 6 7 7 5 5 3 5 9 5 2 1 3 5 4 1 1 2 3 3 4 3 5 5 4 8 3 6 8 7 8 11 11 11 17 23 23 23 24 25 25 24 24 25 25 26 28 29 29 29 29 27 26 25 24 24 23 23 22 21 20 19 19 18 17 16 14 13 13 11 11 12 10 10 11 9 9 9 7 7 7 7 8 8 9
1 3 4 6 6 5 3 3 1 6 5 4 3 5 5 3 2 1 1 1 2 5 6 6 6 4 7 2 5 4 4 8 11 9 11 18 24 25 25 26 26 27 26 25 26 28 29 30 30 30 30 29 29 28 27 27 26 25 24 23 22 21 20 19 18 17 17 15 13 12 10 10 11 11 10 10 10 9 8 7 7 7 7 8 8 9
3 2 1 1 2 3 5 5 6 2 6 8 5 5 4 1 2 1 1 1 1 7 7 9 10 6 5 3 7 5 5 8 8 6 9 16 22 25 26 27 28 28 28 28 29 31 32 32 31 31 31 31 30 30 29 28 27 26 25 24 23 22 21 20 19 17 16 15 13 12 11 10 11 11 10 10 10 9 8 7 7 7 7 7 8 10
3 2 1 1 3 6 6 4 6 5 4 6 4 4 3 1 3 2 1 2 2 7 4 9 13 11 7 5 4 5 4 7 8 8 10 14 21 25 26 28 29 30 30 31 32 33 34 33 33 32 32 32 32 31 30 29 28 26 25 24 23 22 21 20 19 17 16 15 14 13 12 11 11 11 10 9 9 9 7 6 6 6 6 7 8 9
3 4 4 3 4 8 6 3 3 4 1 3 4 5 4 1 0 0 2 3 5 7 3 3 7 8 9 7 6 6 3 3 5 12 17 19 24 27 28 29 30 31 32 33 35 36 36 35 35 35 34 34 33 32 31 29 28 26 25 24 22 22 21 20 19 18 16 16 15 14 13 11 11 10 10 9 9 8 7 6 5 4 4 6 7 9
2 4 7 4 3 11 10 6 4 1 3 6 6 6 5 3 2 3 4 3 5 5 3 2 1 3 4 5 10 10 3 3 4 15 24 28 30 30 30 31 30 32 34 35 37 38 38 38 37 37 36 35 34 32 31 29 28 26 25 24 22 22 21 20 20 19 17 16 15 14 12 11 11 11 10 9 8 8 6 4 3 2 3 4 6 8
4 4 7 8 4 12 14 10 8 5 5 8 6 5 5 4 3 3 4 3 3 2 3 2 2 3 2 2 4 2 4 6 7 14 24 26 29 30 29 30 31 33 35 36 38 39 39 39 39 38 37 36 34 33 31 30 28 27 25 24 23 22 22 21 20 19 18 17 16 15 14 12 12 11 10 9 8 6 5 3 2 1 2 4 6 8
7 5 6 8 6 14 14 11 8 8 3 5 4 5 6 4 3 3 2 2 1 2 2 2 3 4 3 1 1 4 6 6 5 12 22 22 26 29 29 31 32 34 37 38 40 40 40 40 40 39 38 36 35 33 32 30 28 27 26 25 23 22 22 21 20 19 18 17 16 16 15 13 12 11 10 9 7 6 5 4 3 1 1 3 5 7
6 3 2 4 4 9 8 7 9 7 3 3 4 6 4 2 3 3 2 2 2 4 4 4 3 4 1 1 2 5 5 3 1 7 18 22 26 29 29 32 34 36 39 40 41 42 42 42 41 40 39 37 36 34 33 31 29 28 26 26 25 23 22 22 20 20 18 18 18 17 16 14 13 12 10 8 7 7 7 6 4 2 1 3 4 5
4 1 1 1 3 3 1 1 4 2 3 4 4 5 3 4 1 1 2 2 2 6 4 5 6 4 3 3 2 5 4 4 5 6 12 18 24 27 28 32 35 37 39 40 42 42 43 43 42 41 40 38 37 35 33 31 29 28 26 26 25 24 23 22 21 20 19 19 18 18 17 15 13 12 10 10 9 9 8 6 4 2 0 1 3 4
3 2 3 1 1 0 2 2 2 2 2 4 2 3 3 1 1 3 2 3 4 6 5 3 7 6 6 5 4 7 9 9 8 8 9 15 22 25 27 30 33 35 38 40 42 43 44 45 44 43 41 39 37 35 33 32 30 29 27 26 24 23 23 23 23 22 21 20 20 19 17 16 14 13 12 11 11 9 7 5 4 3 1 1 2 4
2 2 3 3 2 2 1 1 4 3 2 1 2 3 1 2 3 4 3 2 3 4 5 3 4 4 6 7 10 12 13 12 12 11 10 15 23 28 29 32 35 37 41 44 45 46 46 46 45 44 42 40 38 36 34 33 31 30 28 27 26 25 25 24 23 23 22 22 21 20 18 17 16 15 14 13 11 9 7 6 5 4 3 2 3 4
2 3 3 2 3 2 2 5 9 10 8 4 2 4 3 2 1 1 2 3 3 3 4 4 5 5 3 3 10 15 13 12 15 14 12 17 26 30 31 35 39 41 43 45 46 47 48 47 46 44 42 40 38 36 35 34 32 31 30 29 28 28 27 26 25 24 23 23 22 20 19 18 17 16 15 13 11 9 8 7 7 6 4 3 4 4
3 3 4 1 1 4 5 6 8 9 9 9 8 8 8 6 4 2 4 4 4 4 3 3 6 6 3 2 2 9 9 11 16 16 14 20 27 30 32 37 40 43 44 45 47 48 48 48 47 45 43 41 39 38 37 35 34 33 31 31 30 29 28 27 26 25 24 23 22 21 20 19 18 17 16 14 12 10 9 9 8 7 6 5 4 5
4 3 4 3 3 4 3 2 2 2 2 3 4 6 6 6 6 6 6 4 4 3 1 1 5 6 3 2 3 2 3 8 18 20 17 22 29 31 32 35 38 41 43 44 46 47 47 48 47 46 44 42 41 40 39 37 36 34 33 32 31 30 28 27 26 25 24 23 23 22 21 21 19 18 16 14 13 12 11 11 10 8 6 5 5 5
4 3 4 3 1 1 1 0 2 3 2 1 3 4 7 8 9 7 5 2 2 4 3 2 6 6 2 2 3 2 4 6 15 21 20 21 26 29 30 32 35 37 38 40 43 44 45 46 47 47 46 45 44 43 41 39 37 36 34 34 32 30 29 28 27 26 25 24 24 23 23 22 20 19 17 15 14 14 13 12 11 9 7 6 6 6
5 3 4 3 2 2 1 1 1 2 1 3 5 6 9 10 9 5 1 1 4 7 7 5 8 6 2 1 1 1 3 6 8 15 20 21 23 26 28 29 32 35 36 38 41 42 44 46 48 50 49 47 46 45 43 40 39 38 36 35 33 31 30 29 28 27 26 26 25 25 24 23 21 20 18 17 16 15 14 13 11 9 7 6 6 7
9 4 7 7 8 10 7 4 4 3 2 3 5 9 12 12 12 8 3 4 9 6 8 8 11 5 2 1 2 1 3 4 5 10 16 21 24 26 27 28 30 33 36 39 41 44 45 47 49 50 50 49 48 47 44 42 41 40 38 35 33 32 32 30 29 28 28 27 26 26 25 24 23 21 20 18 17 16 15 14 12 9 7 6 7 8
4 2 10 13 13 13 9 4 4 7 7 8 10 13 14 14 14 8 5 9 9 4 6 13 10 6 5 4 5 5 5 5 5 8 11 17 22 26 27 29 30 33 35 38 40 42 44 46 48 50 51 51 50 48 46 44 43 41 39 36 35 34 33 31 30 30 29 28 28 27 26 25 24 22 21 20 19 17 16 14 11 9 7 7 7 8
3 4 12 15 16 15 8 3 5 8 11 13 14 15 15 14 14 12 12 12 6 4 12 10 8 10 11 7 8 8 7 6 7 11 15 17 21 25 27 28 28 30 33 35 38 41 44 46 48 50 51 52 51 50 47 46 44 42 40 37 36 36 34 32 32 31 30 30 29 28 27 26 25 24 22 21 19 18 16 14 12 9 8 8 8 9
3 6 10 11 16 17 9 5 5 6 6 7 11 15 16 16 18 18 20 17 9 9 16 7 12 15 12 8 10 9 9 11 11 15 19 19 20 23 26 27 28 29 31 35 38 42 44 47 48 50 53 54 53 51 49 48 47 44 41 39 39 38 36 34 33 32 31 31 30 30 29 28 27 26 24 22 21 19 17 15 12 10 9 9 9 9
3 5 6 9 13 17 13 10 6 6 3 4 7 12 15 19 22 21 22 21 14 17 20 7 6 12 6 6 10 10 13 15 12 14 18 21 21 22 23 25 27 29 31 34 38 41 43 45 47 49 52 53 54 53 51 51 49 46 44 42 41 39 37 36 35 33 33 32 32 31 30 30 30 28 26 23 21 20 18 15 13 11 10 10 10 10
3 4 4 7 8 13 13 12 8 6 7 7 8 11 13 15 17 18 20 18 14 19 22 12 10 12 3 4 4 7 12 14 14 14 17 20 20 20 20 21 24 27 30 32 35 38 40 43 45 47 50 52 54 54 53 53 51 47 45 44 42 41 39 37 35 34 34 33 32 32 32 32 31 29 26 24 22 21 19 16 14 12 12 11 10 10
4 3 2 5 7 12 10 11 9 4 2 7 14 18 16 11 11 15 17 15 15 18 19 15 14 12 4 6 5 5 9 11 11 13 15 15 15 15 17 20 22 24 27 29 32 35 37 41 43 46 49 52 54 54 54 53 51 48 47 46 44 43 40 38 36 35 35 34 34 34 34 34 32 29 27 25 23 22 19 17 15 14 13 12 11 10
5 3 1 5 7 8 4 7 7 4 1 7 15 18 16 13 11 13 14 15 17 16 13 13 13 8 5 7 5 3 4 6 8 10 9 9 12 14 17 18 19 20 22 24 28 30 32 36 38 42 46 50 53 53 53 52 50 50 49 47 46 44 41 39 37 36 36 35 35 35 36 36 33 31 29 27 24 22 21 19 17 16 15 14 12 11
5 5 4 4 4 4 1 6 6 4 7 8 6 5 11 17 18 16 15 16 16 13 11 10 5 4 6 8 8 7 6 5 6 9 12 14 16 18 18 18 17 17 18 20 23 25 28 31 34 38 43 46 49 49 48 48 49 49 48 47 47 44 41 39 38 37 36 35 36 37 38 37 34 32 31 28 25 24 23 21 18 17 17 15 14 13
8 8 5 3 2 1 3 6 4 7 9 5 4 4 4 13 18 19 17 15 13 13 14 11 5 5 7 7 8 9 10 11 13 18 19 18 18 18 18 19 19 18 20 23 25 26 26 27 29 33 37 40 43 44 44 46 47 47 47 47 46 43 41 40 39 37 36 36 37 39 39 37 34 33 32 29 27 26 24 22 21 19 18 17 15 14
10 9 4 3 3 1 3 7 6 4 2 1 4 4 1 3 8 11 12 13 12 12 11 12 11 6 6 8 9 10 12 14 15 18 19 18 18 20 21 21 21 22 24 25 23 21 20 20 21 24 28 33 37 40 42 44 44 45 45 44 43 42 42 41 39 36 36 38 39 40 40 37 35 34 34 31 29 28 26 24 23 21 20 19 17 16
7 8 4 4 4 3 4 7 3 4 3 1 1 2 2 4 7 9 8 10 10 10 10 10 10 7 7 10 12 10 9 7 8 13 19 20 20 22 22 22 21 21 20 17 15 14 13 14 15 16 21 26 30 34 37 39 41 42 43 41 41 42 43 41 38 36 37 39 40 40 39 37 36 36 36 33 31 29 27 26 24 23 22 21 20 18
2 4 5 6 4 3 3 3 2 5 6 3 4 5 2 1 5 8 4 4 4 8 13 11 10 8 7 8 11 11 7 2 4 10 18 21 21 21 21 21 19 16 14 13 13 13 13 13 12 12 15 19 22 25 28 32 35 38 39 39 41 43 43 39 36 36 37 39 39 38 37 36 36 37 37 35 33 31 29 28 26 24 24 23 22 20
3 1 2 3 3 3 3 4 5 5 4 2 5 4 2 5 9 9 3 4 3 6 14 14 10 8 8 11 13 12 6 3 6 8 10 11 14 17 19 19 16 14 14 13 13 12 12 11 10 10 11 14 16 18 20 24 28 31 35 38 40 42 40 36 34 35 37 37 36 35 34 34 36 38 38 36 34 32 30 29 27 26 26 25 24 23
3 1 1 2 3 4 5 4 3 2 2 3 5 3 2 7 11 9 2 4 3 3 8 11 10 8 11 16 16 10 5 7 5 3 2 3 5 10 14 15 15 15 14 13 12 11 11 10 11 11 12 13 14 15 16 19 23 27 31 34 36 37 35 32 32 32 33 33 32 33 33 34 35 37 37 36 35 33 32 30 29 28 28 27 27 25
2 1 1 3 3 4 5 4 2 1 3 4 5 7 8 7 6 3 3 4 5 4 4 6 9 8 11 18 16 10 9 8 3 3 4 4 4 7 10 12 14 14 13 12 12 11 11 11 12 12 12 12 13 13 14 17 20 23 26 29 31 32 29 27 26 27 27 29 30 31 32 32 34 35 35 35 36 35 34 32 31 31 30 30 29 28
3 2 1 3 3 2 3 2 1 2 3 5 5 7 9 5 1 4 3 4 8 10 6 6 9 8 10 16 17 13 10 8 5 4 3 3 3 5 8 11 12 13 12 11 11 11 11 11 11 12 12 12 12 13 14 16 19 21 23 25 27 25 21 20 20 22 24 27 28 29 29 31 32 33 34 35 36 38 37 35 34 34 33 32 32 31
4 4 3 3 3 2 1 2 2 3 4 13 12 5 3 2 3 8 9 6 7 10 9 8 9 8 9 12 14 13 9 7 8 7 6 5 5 4 5 7 8 9 9 10 10 10 10 11 11 11 12 13 13 14 14 16 18 18 20 21 19 16 15 17 19 21 23 25 27 27 28 29 30 31 33 35 37 39 39 37 36 36 36 35 34 33
3 4 3 3 4 4 3 5 3 1 8 17 12 4 6 6 7 13 14 9 8 11 11 10 8 8 9 10 12 13 10 8 9 8 6 6 4 3 4 4 4 5 6 7 8 9 10 11 12 12 12 13 13 13 14 15 15 16 17 16 13 12 14 17 18 20 22 24 25 26 27 28 29 30 32 34 36 38 40 40 39 38 38 37 36 35
4 5 3 2 4 4 3 5 3 3 13 17 5 3 12 13 11 14 15 14 13 11 10 10 9 8 8 8 10 11 11 11 10 8 7 6 6 5 4 4 4 5 5 6 7 9 10 11 12 13 13 12 13 13 14 14 14 15 14 12 11 13 15 17 18 20 22 23 24 25 26 27 28 30 31 33 35 37 39 40 40 40 40 39 38 38
2 3 3 2 3 2 1 4 4 6 14 15 6 8 18 18 15 14 12 12 12 9 10 12 11 10 10 10 10 11 12 13 12 9 8 8 7 6 5 5 5 6 6 7 8 10 12 13 13 14 14 13 14 14 14 14 14 14 13 11 11 13 15 17 20 22 22 23 24 25 26 27 28 29 31 32 34 36 38 40 41 41 41 42 41 40
2 4 3 1 4 3 1 3 4 6 13 14 10 13 18 17 15 13 10 11 12 11 12 12 10 11 12 11 11 10 10 11 11 9 9 9 7 7 6 6 6 7 7 7 8 10 12 14 15 16 16 16 17 16 16 17 16 15 14 13 14 15 16 18 20 22 23 24 25 26 27 28 29 30 31 32 34 35 37 39 40 42 43 43 43 43
4 7 5 3 3 3 2 2 2 5 11 13 12 15 18 17 16 14 12 13 13 12 11 11 11 12 11 9 8 8 8 9 10 10 9 8 7 6 6 6 7 8 8 8 10 12 14 15 17 17 17 18 18 17 17 17 16 15 15 16 17 18 19 20 21 22 24 25 27 28 29 30 31 32 32 33 34 35 37 39 40 41 42 43 44 45
7 8 5 2 3 2 1 2 3 4 5 9 12 15 18 19 18 16 14 14 13 11 11 12 11 10 9 7 7 7 8 9 10 9 9 8 7 8 8 9 9 10 10 11 12 14 15 17 18 19 20 19 18 18 18 17 16 16 16 18 19 21 22 24 24 25 27 28 29 30 31 32 34 34 35 35 36 37 38 39 40 41 42 43 44 43
8 6 2 4 4 3 2 7 9 5 2 10 17 19 18 18 19 18 15 14 13 13 13 13 11 9 9 8 8 8 7 8 8 9 9 10 10 11 12 12 12 12 13 13 14 16 18 20 21 22 22 22 20 20 20 18 17 17 18 19 21 22 24 25 27 29 30 31 32 33 34 35 35 36 37 38 39 40 40 41 41 41 42 42 42 41
8 5 5 6 4 3 6 16 18 9 5 11 19 21 19 17 18 18 17 16 15 14 13 12 12 11 10 10 9 9 9 9 10 11 12 12 12 12 13 13 14 14 14 15 16 18 20 22 24 25 26 25 24 23 22 22 21 21 21 22 22 23 24 26 28 29 31 32 33 35 35 36 37 37 38 39 40 40 40 41 41 41 41 41 40 40
Wind_Direction
176 171 200 209 220 213 210 215 225 246 262 290 331 293 289 290 274 282 118 164 175 197 234 242 257 263 258 219 189 190 192 199 206 198 188 189 191 193 192 193 197 203 221 239 237 221 209 200 191 173 161 154 152 151 149 146 147 150 151 148 144 144 147 146 143 142 143 144 139 137 136 133 132 131 129 127 123 120 117 113 110 105 96 92 88 82
176 203 224 217 224 232 233 226 221 235 255 259 267 282 277 262 265 274 167 155 117 76 258 265 273 269 268 258 184 175 184 202 206 198 190 193 193 194 194 192 197 207 221 231 222 209 202 193 182 171 167 162 158 155 152 151 150 150 150 153 151 148 146 142 139 137 135 135 135 136 136 132 126 119 117 116 108 102 99 96 93 90 87 86 85 84
215 233 231 227 237 239 244 270 234 232 251 253 250 273 264 260 275 284 104 125 105 92 269 279 281 271 266 269 193 175 189 206 207 204 200 197 192 191 194 193 198 208 216 216 209 202 195 186 178 170 168 164 160 158 157 155 154 154 153 154 153 148 144 139 135 134 131 130 134 133 128 125 118 112 109 105 100 98 97 95 92 89 87 86 85 83
216 231 225 226 238 239 219 201 259 268 273 243 233 241 248 252 264 269 119 173 177 202 262 292 289 274 263 267 230 189 191 195 196 199 198 195 192 192 195 197 202 206 206 202 198 195 188 181 174 168 166 163 159 158 158 158 158 157 156 154 151 149 146 140 136 134 129 127 130 128 124 123 120 114 111 108 104 101 99 96 92 88 85 82 79 76
235 233 205 211 217 216 209 199 201 225 248 230 216 219 238 242 234 239 231 189 185 220 238 275 290 273 241 242 236 177 165 160 169 180 179 178 183 188 192 195 203 207 200 193 189 187 184 178 172 168 166 164 161 159 159 161 161 160 157 155 153 152 149 142 136 131 127 126 128 128 127 126 123 118 115 113 108 104 100 95 90 84 79 74 70 65
246 227 177 193 199 187 204 221 193 190 236 244 217 214 223 238 251 268 314 359 340 286 224 154 277 271 237 234 221 143 143 176 171 184 192 184 178 180 183 183 189 195 194 191 187 184 183 177 170 168 168 167 164 164 165 164 162 160 157 156 155 153 147 140 135 132 131 132 131 130 130 127 125 121 117 113 108 106 101 94 89 84 78 71 64 59
236 179 157 170 178 172 198 231 191 176 213 255 254 238 215 225 261 311 339 344 283 284 257 141 221 270 291 270 197 163 194 201 182 195 204 198 192 187 182 180 180 181 186 187 185 184 182 177 170 170 171 170 168 167 167 165 161 159 157 156 154 149 144 141 139 138 137 135 132 130 127 122 121 122 119 114 110 108 102 96 91 84 78 70 62 58
117 146 147 149 166 176 197 220 190 168 183 239 284 354 94 173 258 283 294 250 242 300 278 178 183 274 281 255 179 171 189 204 202 205 205 198 196 194 189 188 185 182 184 185 184 184 181 176 173 172 172 171 170 169 166 164 161 159 156 154 151 148 144 141 139 138 136 133 131 129 125 123 123 123 120 118 116 109 104 101 95 87 80 72 63 55
106 164 173 168 180 200 197 216 193 174 177 226 239 42 75 86 39 309 256 250 285 319 265 191 163 257 277 240 154 167 189 215 214 206 202 194 191 192 190 191 191 186 186 186 184 182 179 177 176 174 171 170 170 169 165 163 160 157 156 153 151 149 145 143 142 140 137 133 131 130 130 131 130 128 126 126 124 118 113 111 102 93 83 72 60 48
50 172 178 175 194 209 170 24 337 176 174 185 146 78 74 77 60 38 261 240 306 276 237 193 166 215 272 246 142 166 219 228 224 204 194 190 188 189 186 185 188 187 186 185 183 180 179 178 176 173 171 170 169 167 164 162 160 158 157 155 153 152 151 149 147 144 140 137 138 137 137 140 138 139 139 135 130 125 123 117 106 95 80 66 53 42
98 81 346 197 183 148 122 53 14 76 137 152 140 92 90 89 71 62 253 116 296 266 225 188 181 196 268 239 168 192 222 214 209 183 178 183 183 185 183 181 182 184 184 182 181 181 180 178 174 172 171 169 168 166 165 164 162 161 159 159 159 157 157 154 151 150 146 144 146 146 146 149 147 144 141 137 133 130 128 121 106 91 75 59 45 34
124 115 15 163 136 113 108 70 22 31 121 141 126 109 115 59 50 40 251 140 230 259 221 184 189 194 229 246 189 194 217 210 195 173 171 176 178 181 181 180 180 181 182 181 181 181 179 176 174 173 172 170 169 168 167 167 165 164 164 165 165 162 161 158 155 155 153 151 154 155 154 152 147 142 139 139 138 135 130 118 100 85 66 48 35 26
208 200 162 146 175 165 141 93 43 3 319 157 128 124 126 152 9 272 204 180 227 251 269 197 196 209 230 247 244 230 230 246 191 171 170 170 175 180 180 180 180 180 181 181 182 181 177 175 173 172 172 171 171 170 169 169 168 169 169 169 169 167 164 162 160 160 160 159 160 159 157 153 149 147 148 148 143 137 129 116 100 80 56 37 26 17
238 226 174 154 215 192 178 168 177 244 204 179 157 152 161 171 214 237 212 224 243 245 286 326 165 258 269 256 248 239 215 37 97 164 174 174 177 180 179 179 180 181 182 183 183 180 177 175 174 173 173 173 172 172 172 172 172 173 172 172 173 172 168 166 166 166 166 165 163 161 160 160 161 160 157 153 146 141 136 127 112 77 48 26 16 13
207 268 188 175 181 182 190 203 187 142 166 193 177 171 184 171 195 226 203 226 257 279 304 310 146 196 218 235 250 250 85 62 80 154 171 175 176 176 175 177 179 181 183 184 183 180 177 176 176 175 175 175 174 174 175 176 176 176 175 175 177 177 172 171 172 171 171 168 166 167 169 171 172 168 161 155 151 153 154 153 149 108 42 15 12 11
208 260 178 164 152 165 189 213 174 122 153 211 172 188 219 194 195 240 205 172 160 335 293 229 230 223 202 189 141 75 70 65 74 141 157 163 168 170 172 176 180 182 184 185 184 181 179 178 179 178 178 177 178 178 179 180 179 180 179 178 180 182 178 176 177 175 175 175 174 176 179 179 175 169 165 164 166 172 177 179 180 180 20 12 11 10
194 254 121 119 133 163 188 208 179 152 164 189 170 198 209 147 177 233 277 67 106 275 256 180 245 284 278 271 153 116 87 71 54 149 153 159 165 169 174 178 181 184 185 187 185 182 181 182 182 182 182 182 182 182 183 182 183 183 184 182 182 184 183 180 180 180 180 182 182 182 182 180 176 172 174 179 183 186 187 189 190 197 357 14 11 6
166 205 273 134 150 177 28 118 171 121 108 138 183 196 133 61 33 189 275 348 173 252 259 177 212 229 199 245 168 131 148 185 220 192 160 162 168 173 179 182 184 185 186 187 187 185 184 185 185 185 186 186 186 186 186 185 185 186 187 187 186 187 186 184 184 185 186 187 186 186 184 181 179 180 186 191 194 194 192 194 195 199 243 8 5 360
152 185 267 333 69 116 29 85 131 4 76 133 196 213 128 125 230 153 196 249 204 242 277 209 208 205 196 212 174 179 202 196 197 199 179 174 176 180 184 184 185 185 186 188 189 188 188 188 188 189 189 189 189 189 189 188 188 187 188 190 190 191 191 189 188 188 189 190 190 189 186 184 185 190 197 199 198 198 196 198 204 208 228 312 343 348
157 190 245 314 0 112 95 174 175 198 225 46 339 292 116 150 190 168 194 223 189 236 273 250 214 218 215 195 176 195 207 188 181 194 193 186 186 187 185 185 186 188 189 191 191 191 192 191 192 192 192 192 191 191 191 191 191 190 190 191 192 194 194 193 192 192 192 193 192 191 188 189 195 199 202 202 201 201 201 206 213 219 232 269 311 327
129 198 218 311 338 125 164 208 192 188 189 180 204 215 196 172 131 140 239 216 188 230 256 261 262 252 241 195 179 193 199 182 179 188 193 191 190 190 189 188 189 191 193 193 193 194 195 195 195 194 195 194 194 194 194 194 193 193 193 194 194 196 195 194 194 195 196 195 193 193 194 197 202 204 205 204 203 203 207 215 221 224 235 257 288 308
164 191 179 147 240 215 218 217 204 197 192 190 194 193 191 185 158 200 241 207 194 224 215 232 263 254 242 322 181 182 186 184 184 183 187 191 190 191 193 194 194 194 195 195 195 197 198 198 197 196 196 196 196 197 197 196 196 196 196 197 198 198 197 197 197 198 199 197 195 196 200 204 206 206 206 206 205 207 213 221 225 228 238 256 277 301
140 126 183 193 201 217 239 220 180 191 185 201 221 198 182 183 180 200 224 197 184 230 196 171 275 265 236 341 8 90 125 173 184 183 184 190 192 192 195 197 198 197 197 197 197 199 200 200 199 198 198 198 200 201 200 199 199 199 200 200 200 200 199 200 201 201 200 199 199 201 205 208 208 208 208 207 207 211 218 224 227 232 243 258 277 302
104 111 196 214 266 346 319 345 49 36 59 332 256 198 183 202 200 202 215 159 167 220 183 178 258 264 267 356 352 16 72 122 172 183 185 187 190 193 195 197 198 198 198 198 199 200 202 202 201 201 200 201 203 204 203 201 201 202 203 203 203 202 201 202 203 203 203 202 203 206 209 210 210 209 209 209 211 216 222 226 229 235 245 262 284 305
156 172 167 175 255 270 277 276 334 339 199 212 228 203 205 210 197 199 204 78 249 221 174 190 242 248 261 313 321 347 78 93 144 177 184 186 188 191 193 195 197 198 198 198 199 201 203 205 205 204 204 205 206 206 205 204 204 205 205 205 205 204 204 205 205 205 205 206 207 210 212 212 212 212 211 212 215 220 225 228 231 236 249 268 288 305
171 184 166 180 220 226 226 220 207 196 183 220 215 201 212 207 191 198 191 207 241 213 160 211 240 253 307 265 215 178 127 121 135 162 178 186 190 191 191 193 196 198 199 199 200 202 205 208 208 206 206 208 209 209 208 207 207 207 207 207 207 207 207 207 208 208 208 209 212 213 214 213 214 214 214 215 219 223 227 229 232 237 252 272 290 303
147 200 190 197 217 224 226 224 181 146 153 203 209 197 206 207 198 200 206 218 226 198 208 228 230 252 270 229 218 210 176 177 175 167 173 179 185 190 191 194 196 199 201 201 201 203 206 209 210 209 209 210 212 212 211 210 210 210 209 208 209 210 210 210 210 211 211 213 215 216 216 216 217 217 216 218 221 224 228 229 232 240 254 273 288 298
110 212 207 209 225 229 212 172 168 160 176 201 204 199 203 203 198 200 218 221 175 178 246 228 179 229 240 202 214 219 186 190 189 184 185 176 178 186 189 192 195 198 201 202 203 206 208 212 213 211 211 213 215 215 213 213 213 212 211 211 211 212 212 212 213 213 214 215 217 218 219 219 219 219 218 219 221 225 228 229 233 243 256 270 282 292
152 216 212 205 228 237 219 178 176 172 190 203 199 203 201 196 198 203 219 223 172 203 245 198 159 222 233 191 210 209 188 200 193 189 191 179 175 181 183 187 193 197 202 204 207 211 213 215 215 213 214 215 216 216 215 215 215 214 213 213 214 215 214 214 216 216 217 218 219 220 220 220 220 220 218 219 222 225 227 229 233 243 255 265 277 289
171 225 208 188 227 244 232 221 200 160 192 233 212 214 206 200 203 204 217 223 208 227 243 212 189 246 242 180 206 202 194 194 173 168 177 174 176 178 180 188 195 201 206 209 213 216 218 219 218 216 215 215 217 218 217 217 217 215 214 215 216 216 216 216 217 218 220 221 222 222 222 221 221 220 219 220 224 226 226 227 232 242 252 261 273 284
198 220 180 156 226 249 233 227 218 181 203 235 237 234 222 209 207 210 221 222 215 235 244 240 254 264 237 134 168 170 171 162 143 148 161 170 179 180 183 194 201 207 213 217 220 221 221 221 219 217 217 218 220 221 220 219 218 216 216 217 218 218 218 218 219 221 223 224 224 224 223 223 222 220 220 222 225 226 226 227 233 241 250 258 268 279
190 219 99 129 219 245 225 209 207 173 178 258 254 242 225 206 204 212 220 215 209 226 238 237 244 245 189 114 99 123 141 140 144 154 158 169 182 186 198 207 211 217 220 223 224 222 222 222 221 221 222 223 223 222 221 220 219 218 219 221 221 220 219 220 221 223 225 225 226 226 226 226 223 221 221 223 226 227 226 228 233 240 248 254 263 273
163 175 156 160 213 249 227 176 174 133 110 255 256 241 213 197 210 220 222 218 213 215 222 229 236 228 166 143 146 151 145 149 161 164 171 195 204 208 217 218 221 227 228 230 229 226 227 227 227 228 228 226 225 224 223 223 222 224 225 225 224 221 220 221 223 225 226 227 228 230 230 228 224 221 223 225 226 227 227 229 234 240 247 251 257 266
168 183 193 172 206 259 178 127 131 172 215 234 263 247 193 191 204 216 220 218 213 212 224 238 233 152 153 169 171 179 190 199 224 247 258 251 231 221 224 226 231 237 239 241 240 236 235 233 233 232 230 228 228 227 226 225 226 228 228 226 224 222 221 224 225 226 228 230 231 233 232 229 224 222 225 226 227 228 228 230 235 239 244 248 253 259
180 193 196 173 195 234 125 128 160 216 229 251 334 331 210 194 201 213 224 222 211 213 229 242 229 162 170 191 189 199 220 238 252 257 255 244 230 227 232 237 241 245 248 250 248 245 242 239 238 235 232 231 231 229 228 228 228 228 228 226 225 224 225 226 226 228 231 233 234 234 234 230 225 223 226 227 228 230 230 231 235 238 242 246 249 255
183 190 189 168 175 132 149 182 204 233 248 347 342 322 349 141 182 208 235 238 218 208 218 233 234 206 178 197 203 212 227 233 241 242 234 228 230 235 241 245 248 250 253 253 251 248 246 243 241 239 236 234 232 231 231 232 230 230 229 228 226 226 228 228 227 230 234 235 235 236 236 233 227 225 227 228 229 231 231 233 235 238 241 243 246 252
182 183 183 194 187 153 183 206 242 319 298 243 266 240 172 148 170 182 220 246 228 201 198 222 238 217 180 189 192 188 199 214 242 243 231 227 233 238 243 249 251 251 250 246 243 240 238 239 239 237 235 234 233 234 235 235 234 233 232 230 229 229 229 228 229 233 236 237 238 239 239 236 230 228 229 229 230 233 234 235 236 237 240 243 246 252
168 176 180 200 196 134 156 202 252 272 258 224 211 231 233 159 164 152 170 271 258 196 190 205 231 218 178 166 165 158 158 175 266 255 239 234 236 240 245 249 246 242 235 231 235 236 235 235 232 229 229 229 231 234 235 236 236 235 234 232 230 229 228 228 232 237 239 240 241 241 241 239 235 232 231 231 232 235 237 237 236 237 240 243 248 252
73 97 154 192 194 156 170 201 211 227 242 215 224 257 16 116 124 99 63 290 272 205 195 201 219 209 169 163 162 148 138 199 244 258 254 243 238 239 243 242 235 229 230 234 239 241 241 242 238 236 235 234 236 237 235 235 235 234 233 232 230 229 228 230 235 240 242 244 245 244 243 241 238 235 234 233 235 237 240 239 237 238 241 244 248 250
96 125 182 198 199 187 192 212 227 232 239 215 219 233 137 136 122 91 37 258 245 228 208 206 218 210 177 173 167 155 175 219 233 260 240 210 216 229 234 235 233 235 239 240 242 245 249 252 249 247 247 246 246 243 237 233 232 232 233 232 230 229 230 235 243 247 248 247 246 244 243 242 240 239 237 236 237 239 241 241 238 238 241 244 247 250
129 157 181 197 215 207 200 217 273 261 224 216 200 179 157 128 107 124 205 213 192 198 209 204 212 211 186 176 174 182 209 215 192 111 136 155 181 211 224 231 235 238 239 239 243 248 250 251 250 248 247 246 245 240 233 228 226 228 229 228 228 231 236 244 250 251 249 246 244 244 244 243 243 243 241 240 239 240 242 242 240 240 242 245 248 250
150 137 160 193 208 211 214 229 285 270 213 157 148 167 158 127 129 197 159 139 175 180 175 188 197 197 190 189 192 202 210 207 200 188 173 187 212 222 229 234 233 232 233 237 243 247 245 244 245 244 243 242 240 237 232 227 227 228 229 229 233 238 243 246 246 244 243 243 243 245 245 246 246 246 245 243 241 241 242 243 242 241 242 246 249 251
155 146 176 203 179 152 212 203 209 274 190 146 132 135 171 170 186 160 130 117 177 177 165 172 181 182 188 196 201 205 206 203 209 219 231 238 239 231 228 228 228 229 234 239 243 243 241 240 241 242 242 239 236 233 229 227 228 230 231 235 239 242 241 239 239 240 241 241 243 245 246 247 247 247 245 243 241 242 243 244 243 243 243 246 250 252
173 166 179 210 179 157 192 202 201 255 173 158 144 150 194 189 165 151 143 139 160 165 162 163 170 182 193 200 202 203 208 212 211 218 226 221 206 184 179 185 201 215 226 235 238 239 240 241 241 240 238 234 231 229 227 226 227 228 232 239 244 245 244 244 243 243 242 242 243 244 244 244 245 244 244 243 242 243 244 245 245 245 245 247 251 254
206 179 155 179 183 164 171 192 192 162 167 166 152 149 169 164 151 150 152 152 155 165 177 180 186 195 202 211 212 211 218 221 219 220 215 195 176 167 167 177 198 212 226 235 240 242 243 244 243 240 237 232 228 227 226 226 228 232 239 247 251 250 252 252 251 249 248 247 246 244 243 242 242 242 243 243 244 245 246 247 247 247 248 249 251 254
227 152 95 86 176 167 97 144 144 154 167 168 156 149 157 156 152 151 153 159 165 176 187 189 196 204 209 218 222 224 229 228 224 221 206 187 176 178 190 209 220 230 237 239 243 245 244 243 242 238 237 235 231 231 231 232 236 241 247 252 251 251 252 251 252 253 253 252 251 248 246 245 243 244 245 246 247 249 249 250 251 251 251 251 253 255
232 166 134 139 192 188 168 144 134 154 170 169 159 157 161 162 162 163 168 175 178 180 184 192 206 213 216 223 226 231 238 233 223 211 195 187 190 199 212 227 234 242 252 258 259 254 248 247 245 241 238 236 235 235 236 238 242 247 250 252 252 253 254 252 252 253 254 254 254 252 250 249 248 248 248 249 251 252 253 253 253 253 253 254 254 256
184 164 167 217 212 173 145 159 127 143 169 176 171 169 173 177 177 178 182 185 184 186 196 208 217 216 216 220 220 224 229 218 205 198 195 199 208 216 229 243 250 260 270 272 267 258 252 251 249 245 244 242 239 239 240 242 246 251 254 258 259 259 259 258 257 257 257 256 256 254 253 252 251 251 252 253 254 256 257 257 257 257 257 258 258 258
142 155 168 160 151 124 82 169 143 112 161 199 196 183 182 188 188 185 186 188 192 202 211 215 220 222 220 218 214 214 214 206 201 202 210 223 237 250 259 264 267 271 272 270 268 264 258 256 254 252 253 252 249 248 248 249 252 255 260 265 267 266 266 265 263 262 260 258 257 257 255 254 254 254 254 255 256 257 259 260 260 260 260 260 259 259
140 165 167 118 152 200 200 177 172 146 159 210 205 196 191 192 193 193 195 200 207 215 217 215 219 225 224 224 225 224 221 220 222 225 232 242 251 257 261 261 261 263 263 263 265 262 258 258 258 258 259 259 255 253 254 256 256 258 263 267 268 269 269 269 267 265 264 262 261 261 260 259 259 259 259 259 259 260 261 261 261 261 260 259 258 257
171 180 158 148 183 222 177 172 174 165 158 190 196 196 195 196 198 202 208 216 221 222 223 225 228 231 233 235 238 239 239 241 243 243 246 249 249 249 250 252 255 259 260 260 260 260 260 260 260 260 261 262 259 257 258 259 258 260 263 266 267 269 270 272 273 272 270 269 268 267 266 265 264 263 263 263 264 264 264 264 264 263 262 260 258 257